McCall, ID

8:48 AM MST on December 07, 2016 (GMT -0700)
McCall

Weather History for KMYL - November, 2014

Change the Weather History Date:

Thursday, November 27, 2014

  Actual Average Record
Temperature  
Mean Temperature 39 °F 23 °F  
Max Temperature 47 °F 31 °F 55 °F (1936)
Min Temperature 31 °F 15 °F -3 °F (2015)
Degree Days  
Heating Degree Days 26 42  
Month to date heating degree days 984 968  
Since 1 July heating degree days 1954 2511  
Cooling Degree Days 0 0  
Month to date cooling degree days 0 0  
Year to date cooling degree days 185 25  
Moisture  
Dew Point 34 °F    
Average Humidity 75    
Maximum Humidity 100    
Minimum Humidity 49    
Precipitation  
Precipitation 0.53 in 0.07 in 1.23 in (1942)
Month to date precipitation 3.05 2.50  
Year to date precipitation 22.06 17.82  
Sea Level Pressure  
Sea Level Pressure 30.11 in    
Wind  
Wind Speed 6 mph (East)    
Max Wind Speed 25 mph    
Max Gust Speed 35 mph    
Visibility 8 miles    
Events Rain    
T = Trace of Precipitation, MM = Missing Value Source: NWS Daily Summary

Daily Weather History Graph

Daily Weather History Graph

Search for Another Location

Airport or City:

Trip Planner

Search our weather history database for the weather conditions in past years. The results will help you decide how hot, cold, wet, or windy it might be!

Date:

Astronomy

Nov. 27, 2014 Rise Set
Actual Time 7:57 AM MST 5:06 PM MST
Civil Twilight 7:24 AM MST 5:39 PM MST
Nautical Twilight 6:48 AM MST 6:15 PM MST
Astronomical Twilight 6:13 AM MST 6:50 PM MST
Moon 12:09 PM MST (11/27) 10:58 PM MST (11/27)
Length of Visible Light 10h 14m
Length of Day
9h 09m
Waxing Crescent, 32% of the Moon is Illuminated
Nov 27
Waxing Crescent
Nov 29
First Quarter
Dec 6
Full
Dec 14
Last Quarter
Dec 21
New

Hourly Weather History & Observations

Time (MST) Temp. Windchill Dew Point Humidity Pressure Visibility Wind Dir Wind Speed Gust Speed Precip Events Conditions
12:51 AM 33.1 °F - 32.0 °F 96% 30.20 in 10.0 mi Calm Calm - N/A   Clear
1:16 AM 30.9 °F - 30.9 °F 100% 30.17 in 2.0 mi Calm Calm - N/A   Partly Cloudy
1:20 AM 30.9 °F - 30.0 °F 96% 30.17 in 1.0 mi Calm Calm - N/A   Mist
1:27 AM 30.9 °F 26.2 °F 30.9 °F 100% 30.17 in 2.5 mi Variable 4.6 mph - N/A   Partly Cloudy
1:33 AM 32.0 °F - 30.9 °F 96% 30.17 in 8.0 mi Calm Calm - N/A   Partly Cloudy
1:51 AM 32.0 °F - 30.9 °F 96% 30.20 in 7.0 mi Calm Calm - N/A   Clear
2:51 AM 33.1 °F - 32.0 °F 96% 30.19 in 10.0 mi Calm Calm - N/A   Overcast
3:51 AM 33.1 °F 30.0 °F 33.1 °F 100% 30.19 in 10.0 mi Variable 3.5 mph - N/A   Overcast
4:51 AM 35.1 °F 28.6 °F 34.0 °F 96% 30.21 in 10.0 mi NW 8.1 mph - 0.00 in Rain Light Rain
5:51 AM 37.0 °F 32.4 °F 35.1 °F 93% 30.19 in 10.0 mi ENE 5.8 mph - 0.00 in Rain Light Rain
6:51 AM 36.0 °F 32.1 °F 33.1 °F 89% 30.17 in 10.0 mi NW 4.6 mph - 0.01 in   Overcast
7:51 AM 35.1 °F 32.2 °F 33.1 °F 92% 30.19 in 10.0 mi NE 3.5 mph - N/A   Overcast
8:51 AM 36.0 °F 31.1 °F 33.1 °F 89% 30.18 in 10.0 mi NNE 5.8 mph - N/A   Overcast
9:51 AM 37.0 °F 31.6 °F 34.0 °F 89% 30.18 in 10.0 mi NNW 6.9 mph - N/A   Scattered Clouds
10:51 AM 39.9 °F - 37.0 °F 89% 30.18 in 10.0 mi Calm Calm - N/A   Overcast
11:51 AM 45.0 °F 38.5 °F 30.9 °F 58% 30.13 in 10.0 mi South 13.8 mph - N/A   Overcast
12:51 PM 46.9 °F - 28.9 °F 50% 30.11 in 10.0 mi SSE 12.7 mph - N/A   Overcast
1:51 PM 45.0 °F 36.0 °F 30.0 °F 56% 30.12 in 10.0 mi South 25.3 mph 34.5 mph N/A   Overcast
2:51 PM 39.0 °F 33.4 °F 34.0 °F 82% 30.15 in 9.0 mi South 8.1 mph - 0.01 in Rain Light Rain
3:02 PM 39.0 °F 33.4 °F 34.0 °F 82% 30.10 in 6.0 mi SSE 8.1 mph - 0.01 in Rain Light Rain
3:51 PM 39.9 °F 33.4 °F 36.0 °F 86% 30.13 in 5.0 mi SE 10.4 mph - 0.12 in Rain Rain
4:51 PM 39.0 °F 31.8 °F 37.0 °F 93% 30.14 in 3.0 mi NW 11.5 mph 23.0 mph 0.13 in Rain Light Rain
5:05 PM 39.0 °F 36.8 °F 37.0 °F 93% 30.08 in 10.0 mi NNE 3.5 mph - 0.02 in Rain Light Rain
5:27 PM 37.9 °F 33.5 °F 36.0 °F 93% 30.09 in 5.0 mi NE 5.8 mph - 0.04 in Rain Light Rain
5:51 PM 39.0 °F 34.8 °F 37.0 °F 93% 30.12 in 5.0 mi South 5.8 mph - 0.09 in Rain Rain
6:28 PM 37.9 °F 32.1 °F 35.1 °F 89% 30.04 in 10.0 mi NNE 8.1 mph - 0.10 in Rain Light Rain
6:51 PM 37.9 °F - 36.0 °F 93% 30.08 in 10.0 mi Calm Calm - 0.10 in   Overcast
7:51 PM 35.1 °F 29.3 °F 34.0 °F 96% 30.09 in 10.0 mi South 6.9 mph - 0.00 in   Overcast
8:51 PM 36.0 °F - 35.1 °F 97% 30.05 in 10.0 mi North - - 0.00 in Rain Light Rain
9:51 PM 34.0 °F - 33.1 °F 96% 30.06 in 4.0 mi North - - 0.00 in Rain Light Rain
10:01 PM 35.1 °F 29.3 °F 34.0 °F 96% 30.02 in 6.0 mi ENE 6.9 mph - 0.01 in Rain Light Rain
10:10 PM 35.1 °F 32.2 °F 34.0 °F 96% 30.02 in 8.0 mi East 3.5 mph - 0.01 in Rain Light Rain
10:19 PM 36.0 °F - 35.1 °F 97% 30.02 in 7.0 mi Calm Calm - 0.01 in Rain Light Rain
10:51 PM 36.0 °F - 35.1 °F 97% 30.04 in 10.0 mi Calm Calm - 0.04 in Rain Light Rain
10:57 PM 35.1 °F - 35.1 °F 100% 30.01 in 10.0 mi Calm Calm - 0.00 in Rain Light Rain
11:15 PM 34.0 °F - 34.0 °F 100% 30.00 in 1.8 mi Calm Calm - 0.00 in Rain Light Rain
11:31 PM 35.1 °F - 34.0 °F 96% 29.99 in 3.0 mi Calm Calm - 0.01 in Rain Light Rain
11:51 PM 36.0 °F 32.1 °F 35.1 °F 97% 30.00 in 10.0 mi South 4.6 mph - 0.03 in Rain Light Rain